www.pogodaiklimat.ru

Погода и климат >> Архив погоды >> Россия >> Якутия >> Батамай


ПОГОДА в Батамае

  • Прогноз погоды в Батамае
  • Монитор погоды в Батамае

АРХИВ ПОГОДЫ в Батамае

Время (UTC), дата Ветер
(напр.,м/с)
 
Видим.   Явления Облачность Т
(С)
Тd
(С)
f
(%)
Тe
(С)
Тes
(С)
Комфортность P
(гПа)
Po
(гПа)
Тmin
(С)
Tmax
(С)
R
(мм)
R24
(мм)
S
(см)
09 19.06 ЮЗ 1 20 км дым 3/3 600 м
[Cb cap]
+26.9 +5.1 25 +26 +29 жарко 1006.0 996.9
12 19.06 В 1 50 км 5/3 600 м
[Cb cap Ac trans Ci fib]
+24.7 +11.9 45 +26 +26 жарко 1006.7 997.6 +27.4
15 19.06 В 1 50 км 10/0
[Ac trans Cs]
+15.9 +5.5 50 +17 +17 1007.9 998.4
18 19.06 СВ 1 50 км 10/0
[Cs]
+13.0 +9.5 79 +13 +13 1008.1 998.6
21 19.06 С 1 50 км 10/0
[Cs]
+14.2 +11.0 81 +15 +17 1008.4 998.9
00 20.06 Ю 1 50 км 10/0
[Ci fib]
+19.4 +11.4 60 +22 +30 комфорт 1008.4 999.1 +13.0
03 20.06 ЮЗ 2 20 км дым 3/0
[Ci fib]
+22.4 +12.6 54 +25 +37 комфорт 1007.4 998.1
06 20.06 ЮЗ 2 20 км дым 10/0
[Ac trans Ci fib]
+25.6 +11.8 42 +27 +34 жарко 1006.3 997.2
09 20.06 ЮЗ 1 20 км дым 10/0
[Ac As]
+23.3 +14.7 58 +27 +28 душно 1005.0 995.9
12 20.06 ЮЗ 1 20 км дым 10/0
[Ac trans Cs]
+21.3 +14.5 65 +24 +24 комфорт 1005.3 996.0 +26.8
15 20.06 З 1 20 км дым 10/0
[Cs]
+17.4 +15.0 86 +18 +18 1005.7 996.2
18 20.06 СВ 2 20 км дым 10/0
[Cs]
+17.1 +10.6 66 +17 +17 1006.4 996.9
21 20.06 СВ 1 50 км 10/0
[Cs]
+15.0 +10.7 75 +16 +18 1007.3 997.8
00 21.06 С 1 50 км 10/0
[Cs]
+19.2 +13.8 71 +22 +30 комфорт 1007.4 998.1 +13.5
03 21.06 ЮВ 2 50 км 10/0
[Ac trans Cs]
+22.3 +13.3 57 +25 +34 комфорт 1007.7 998.4
06 21.06 ЮЗ 1 50 км 10/0
[Cs]
+23.3 +15.3 61 +28 +37 душно 1007.3 998.2
09 21.06 штиль 0 50 км 10/0
[Cs]
+24.6 +13.5 50 +27 +31 жарко 1006.9 997.8
12 21.06 штиль 0 50 км 10/3 600 м
[Cb cap Ac trans Cs]
+21.3 +16.0 72 +25 +25 комфорт 1007.8 998.5 +25.4
15 21.06 СВ 1 50 км 10/0
[Ac trans Cs]
+15.0 +12.3 84 +16 +16 1009.0 999.5
18 21.06 С 1 50 км 10/0
[Ac trans Cs]
+12.0 +10.9 93 +12 +12 1009.8 1000.2
21 21.06 В 1 50 км 10/0
[Ac trans Cs]
+14.8 +12.2 84 +15 +17 1010.0 1000.5
00 22.06 Ю 2 50 км дым 4/0
[Cs]
+20.6 +13.9 65 +24 +32 комфорт 1011.2 1000.6 +10.2
03 22.06 ЮЗ 2 50 км 4/1 600 м
[Cu med, cong Ac trans Ci fib]
+25.3 +13.4 48 +27 +37 жарко 1008.9 999.8
06 22.06 Ю 3 50 км 5/3 600 м
[Cb cap Ci fib]
+26.6 +11.8 40 +28 +33 жарко 1007.4 998.3
09 22.06 Ю 2 50 км 4/4 600 м
[Cb cap]
+26.3 +13.2 44 +28 +30 жарко 1006.8 997.7
12 22.06 В 1 50 км 5/4 600 м
[Cb cap Ci fib]
+23.5 +16.3 64 +27 +27 душно 1006.8 997.7 +27.1
15 22.06 СВ 2 50 км 9/9 600 м
[Cb cap]
+19.1 +12.3 65 +21 +21 комфорт 1007.0 997.7
18 22.06 СВ 3 50 км 5/3 600 м
[Cb cap Ac trans Ci fib]
+17.7 +12.1 70 +18 +18 1007.2 997.9
21 22.06 СВ 4 50 км 8/3 600 м
[Cb cap Ac trans Ci fib]
+17.5 +13.3 76 +17 +18 1008.1 998.8
00 23.06 В 4 50 км 9/4 600 м
[Cb cap Ac trans]
+19.3 +14.1 72 +21 +22 комфорт 1008.1 998.8 +19.1
03 23.06 В 5 50 км 5/3 600 м
[Cb cap Ac trans Ci fib]
+23.6 +13.5 53 +26 +30 жарко 1006.9 997.8
06 23.06 ЮВ 6
{10}
50 км 8/5 600 м
[Cb cap Ac trans Ci fib]
+24.9 +12.9 47 +27 +28 жарко 1005.5 996.4
09 23.06 СВ 2 50 км 8/5 600 м
[Cb cap Ac trans Ci fib]
+22.9 +13.7 56 +26 +27 жарко 1004.9 995.8
12 23.06 В 2 50 км 4/1 600 м
[Cb cap Ac trans Ci fib]
+23.5 +11.9 48 +25 +25 комфорт 1005.1 996.0 +25.8
15 23.06 СВ 2 50 км 8/4 600 м
[Cb cap Ac trans]
+18.3 +12.2 68 +19 +19 1005.2 995.9
18 23.06 СВ 2 50 км 8/3 1000 м
[Sc Ac trans Ci fib]
+15.6 +11.5 77 +16 +16 1005.8 996.3
21 23.06 СВ 3 50 км 3/0
[Ac trans Ci fib]
+18.3 +12.2 68 +19 +20 1005.9 996.6
00 24.06 В 3 50 км 3/0
[Ac trans Ci fib]
+23.1 +10.9 46 +25 +32 комфорт 1006.0 996.9 +15.6
03 24.06 В 6 50 км 8/6 600 м
[Cb cap]
+25.9 +9.9 36 +27 +28 жарко 1005.1 996.0
06 24.06 В 4 50 км 8/5 600 м
[Cb cap Ci fib]
+26.1 +10.9 39 +27 +30 жарко 1004.9 995.8
09 24.06 Ю 3 50 км 6/5 600 м
[Cb cap Ci fib]
+25.4 +11.5 42 +27 +28 жарко 1004.9 995.8
12 24.06 З 1 50 км 4/3 600 м
[Cb cap Ci fib]
+20.3 +16.5 79 +24 +25 комфорт 1006.3 997.0 +26.7
15 24.06 В 1 50 км 5/1 600 м
[Cb cap Ac trans Ci fib]
+14.1 +13.6 97 +14 +14 1007.1 997.6
18 24.06 С 1 50 км 10/3 600 м
[Cb cap Ac trans Ci fib]
+10.8 +10.4 97 +10 +10 1007.9 998.3
21 24.06 СВ 1 50 км 6/3 600 м
[Cb cap Ac trans]
+14.6 +13.2 91 +15 +16 1008.8 999.3
00 25.06 В 3 50 км 9/8 600 м
[Cb cap Ac trans]
+19.0 +14.3 74 +20 +21 1009.4 1000.1 +10.4
03 25.06 В 4 50 км 9/9 600 м
[Cb cap]
+19.1 +12.3 65 +20 +21 1010.1 1000.8
06 25.06 Ю 1 50 км 8/4 600 м
[Cb cap Ac trans]
+21.1 +13.5 62 +24 +28 комфорт 1009.9 1000.6
09 25.06 ЮЗ 1 50 км 8/4 600 м
[Cb cap Ac trans]
+22.7 +14.6 60 +26 +28 жарко 1009.7 1000.6
12 25.06 В 1 50 км 6/3 600 м
[Sc diur, vesp Ac trans Ci fib]
+19.1 +13.3 69 +21 +21 комфорт 1010.6 1001.3 +23.0
15 25.06 СВ 1 50 км 6/0
[Ac trans]
+12.7 +10.6 87 +13 +13 1011.6 1002.1
18 25.06 ЮВ 3 50 км 9/5 600 м
[Cb cap Ac trans]
+17.3 +11.8 70 +17 +17 1012.2 1002.7
21 25.06 ЮВ 2 50 км 8/4 600 м
[Cb cap Ac trans]
+15.9 +11.5 75 +16 +17 1013.0 1003.5
00 26.06 В 1 50 км 6/3 600 м
[Cb cap Ac trans Ci fib]
+19.1 +13.3 69 +21 +27 комфорт 1013.4 1004.1 +11.8
03 26.06 ЮВ 3 50 км 4/1 600 м
[Cb cap Ac trans Ci fib]
+20.3 +10.8 54 +22 +30 комфорт 1013.2 1003.9
06 26.06 Ю 5 50 км 3/3 600 м
[Cu med, cong Ci fib]
+22.3 +11.2 49 +24 +28 комфорт 1011.7 1002.4

 

Местоположение метеостанции Батамай (Якутия, Россия): широта 63.52 долгота 129.40 высота над уровнем моря 79 м.

В архиве по умолчанию представлена погода в Батамае за последнюю неделю. Архивные данные за месяц целиком и за предыдущие месяцы, начиная с января 2011 года, Вы можете получить, выбрав интересующий диапазон дат из раскрывающегося списка и нажав кнопку "Ввод!".


*Определитесь, кто Вы:
робот инопланетянин человек

Внимание! Время в таблицах - всемирное. Для получения местного времени необходимо прибавить поправку, которая равна 9 ч.

Смотрите также архив погоды в соседних городах и на ближайших метеорологических станциях:

Погода в Сеген-Кюеле (Якутия, Россия) (69 км)
Погода в Намцах (Якутия, Россия) (90 км)
Погода в Сангаре (Якутия, Россия) (109 км)
Погода в Верхоянском Перевозе (Якутия, Россия) (131 км)
Погода в Якутске (Якутия, Россия) (169 км)
Погода в Сого-Хае (Якутия, Россия) (169 км)
Погода в Бердигестяхе (Якутия, Россия) (185 км)
Погода в Себян-Кюеле (Якутия, Россия) (200 км)
Погода в Покровске (Якутия, Россия) (227 км)
Погода в Хатырык-Хомо (Якутия, Россия) (231 км)

Пояснения к столбцам:

Ветер - указаны скорость ветра в м/с - средняя за 10 мин, порывы в срок и между сроками (в фигурных скобках) и направление, откуда дует ветер: С - северный, СВ - северо-восточный, В - восточный, ЮВ - юго-восточный, Ю - южный, ЮЗ - юго-западный, З - западный, СЗ - северо-западный.
Видимость - горизонтальная дальность видимости в метрах или километрах. При видимости от 1 до 10 км при отсутствии осадков обычно наблюдается дымка, при ухудшении видимости до 1 км и менее - туман. В сухую погоду видимость может ухудшаться дымом, пылью или мглою.
Явления - указаны атмосферные явления, наблюдавшиеся в срок или в последний час перед сроком; фигурными скобками обозначены явления, наблюдавшиеся между сроками (за 1-3 часа до срока); квадратными скобками обозначены град или гололедные отложения с указанием их диаметра в мм.
Облачность - указаны через наклонную черту общая и нижняя облачность в баллах и высота нижней границы облаков в метрах; квадратными скобками обозначены формы облаков: Ci - перистые, Cs - перисто-слоистые, Cc - перисто-кучевые, Ac - высококучевые, As - высокослоистые, Sc - слоисто-кучевые, Ns - слоисто-дождевые, Cu - кучевые, Cb - кучево-дождевые. Подробнее классификацию облаков см. в Атласе облаков (PDF).
T - Температура воздуха - температура, измеренная на высоте 2 м над землей.
Td - Температура точки росы - температура, при понижении до которой содержащийся в воздухе водяной пар достигнет насыщения.
f - Относительная влажность воздуха - влажноcть воздуха, измеренная на высоте 2 м над землей.
Te - Эффективная температура - температура, которую ощущает одетый по сезону человек в тени. Характеристика душности погоды. При расчете учитывается влияние влажности воздуха и скорости ветра на теплоощущения человека.
Tes - Эффективная температура на солнце - температура, которую ощущает человек, с поправкой на солнечный нагрев. Характеристика знойности погоды. Зависит от высоты солнца над горизонтом, облачности и скорости ветра. Ночью, в пасмурную погоду, а также при ветре 12 м/с и более поправка равна нулю.
P - Атмосферное давление - приведенное к уровню моря атмосферное давление.
Po - Атмосферное давление - измеренное на уровне метеостанции атмосферное давление.
Tmin - Минимальная температура - минимум температуры воздуха на высоте 2 м над землей.
Tmax - Максимальная температура - максимум температуры воздуха на высоте 2 м над землей.
R - Количество осадков - Количество выпавших осадков за период времени, мм. При наведении курсора мыши на число - период времени, за который выпало указанное количество осадков.
R24 - Количество осадков - Количество выпавших осадков за 24 часа, мм.
S - Снежный покров - Высота снежного покрова, см. При наведении курсора мыши на число - состояние снежного покрова и степень покрытия местности в баллах.